Tracking 19831 objects as of 23-Aug-2019
HD Live streaming from Space Station
objects crossing your sky now

BREEZE-M DEB

Track BREEZE-M DEB now!


NORAD ID: 41543
Int'l Code: 2015-075D
Perigee: 33,421.6 km
Apogee: 35,454.7 km
Inclination: 2.8 °
Period: 1,367.4 minutes
Semi major axis: 40809 km
RCS: Unknown
Launch date: December 13, 2015
Source: Commonwealth of Independent States (former USSR) (CIS)
Launch site: TYURATAM MISSILE AND SPACE COMPLEX (TTMTR)

Note: This is SATELLITE DEBRIS
aabbcc
Your satellite tracking list
Your tracking list is empty




NASA's NSSDC Master Catalog

Two Line Element Set (TLE):
1 41543U 15075D   19230.69718017 -.00000175 +00000-0 +00000-0 0  9993
2 41543 002.7985 085.1094 0249109 098.7847 264.3393 01.05309276013811
Source of the keplerian elements: AFSPC